Flag for Germany Weather past 2 weeks in Eberswalde, Brandenburg, Germany

Now
68 °F

Sunny.


Feels Like: 68 °F
Forecast: 41 / 58 °F
Wind: 15 mph from Northwest

Location: Berlin-Tegel

Current Time: Apr 21, 2015 at 1:54:03 PM

Latest Report: Apr 21, 2015 at 1:20 PM


Visibility: 10 mi

Pressure: 30.21 "Hg

Humidity: 23%

Dew point: 28 °F

Location of EberswaldeLocation

Historic Weather in Eberswalde — Graph

°F

Eberswalde temperature yesterday

Maximum temperature yesterday: 64 °F (at 2:20 PM)
Minimum temperature yesterday: 36 °F (at 6:50 AM)
Average temperature yesterday: 51 °F

Past Weeks' High & Low Weather Summary

 TemperatureHumidityPressure
High73 °F (Apr 15, 3:50 PM)100% (Apr 7, 4:50 AM)30.54 "Hg (Apr 7, 4:50 AM)
Low28 °F (Apr 7, 4:20 AM)23% (Apr 15, 3:50 PM)29.80 "Hg (Apr 15, 6:50 PM)
Average50 °F60%30.21 "Hg
* Reported Apr 6 12:20 PM — Apr 21 12:20 PM, Eberswalde, Weather by CustomWeather, © 2015

Note: Actual official high and low records may vary slightly from our data, if they occured in-between our weather recording intervals... More about our weather records

Advertising

Eberswalde weather history for previous 24 hours

 ConditionsComfort  
Time TempWeatherWind HumidityBarometerVisibility
12:20 PM
Tue, Apr 21
66 °FSunny.14 mph26%30.24 "Hg10 mi
11:50 AM66 °FSunny.14 mph28%30.24 "Hg10 mi
11:20 AM64 °FSunny.16 mph30%30.24 "Hg10 mi
10:50 AM63 °FSunny.13 mph32%30.24 "Hg10 mi
10:20 AM61 °FSunny.13 mph36%30.24 "Hg10 mi
9:50 AM59 °FSunny.15 mph39%30.24 "Hg10 mi
9:20 AM55 °FSunny.13 mph38%30.27 "Hg10 mi
8:50 AM54 °FSunny.9 mph47%30.27 "Hg10 mi
8:20 AM50 °FSunny.9 mph58%30.27 "Hg10 mi
7:50 AM46 °FSunny.10 mph66%30.27 "Hg10 mi
7:20 AM45 °FSunny.7 mph71%30.27 "Hg10 mi
6:50 AM41 °FClear.7 mph81%30.27 "Hg10 mi
6:20 AM39 °FClear.7 mph81%30.27 "Hg10 mi
5:20 AM39 °FClear.5 mph81%30.27 "Hg10 mi
4:50 AM39 °FClear.6 mph81%30.27 "Hg10 mi
4:20 AM39 °FClear.6 mph75%30.30 "Hg10 mi
3:50 AM39 °FClear.7 mph75%30.30 "Hg10 mi
3:20 AM41 °FClear.5 mph76%30.30 "Hg10 mi
2:50 AM41 °FClear.3 mph76%30.30 "Hg10 mi
2:20 AM39 °FClear.5 mph75%30.30 "Hg10 mi
1:50 AM41 °FClear.2 mph76%30.30 "Hg10 mi
1:20 AM41 °FClear.3 mph76%30.30 "Hg10 mi
12:50 AM43 °FClear.2 mph66%30.30 "Hg10 mi
12:20 AM41 °FClear.1 mph70%30.30 "Hg10 mi
11:50 PM
Mon, Apr 20
45 °FClear.1 mph61%30.30 "Hg10 mi
11:20 PM46 °FClear.1 mph57%30.30 "Hg10 mi
10:50 PM48 °FClear.1 mph54%30.30 "Hg10 mi
10:20 PM50 °FClear.2 mph50%30.30 "Hg10 mi
9:50 PM52 °FClear.2 mph47%30.30 "Hg10 mi
9:20 PM54 °FClear.3 mph41%30.30 "Hg10 mi
8:50 PM54 °FSunny.6 mph41%30.30 "Hg10 mi
8:20 PM55 °FSunny.7 mph38%30.27 "Hg10 mi
7:50 PM57 °FSunny.8 mph36%30.27 "Hg10 mi
7:20 PM59 °FSunny.10 mph34%30.27 "Hg10 mi
6:50 PM59 °FSunny.10 mph36%30.24 "Hg10 mi
6:20 PM61 °FSunny.10 mph34%30.24 "Hg10 mi
5:50 PM63 °FSunny.9 mph30%30.24 "Hg10 mi
5:20 PM63 °FSunny.10 mph32%30.24 "Hg10 mi
4:50 PM63 °FSunny.12 mph32%30.24 "Hg10 mi
4:20 PM64 °FSunny.13 mph32%30.24 "Hg10 mi
3:50 PM64 °FSunny.10 mph32%30.24 "Hg10 mi
3:20 PM64 °FSunny.13 mph30%30.24 "Hg10 mi
2:50 PM64 °FSunny.9 mph32%30.24 "Hg10 mi
2:20 PM64 °FSunny.10 mph32%30.24 "Hg10 mi
1:50 PM63 °FPassing clouds.9 mph32%30.24 "HgN/A
1:20 PM63 °FSunny.10 mph34%30.24 "Hg10 mi
Weather by CustomWeather, © 2015

See weather overviewHow to use our weather pages